Wind_Speed
5 4 9 22 16 14 4 7 9 8 10 2 11 16 16 27 29 32 35 42 47 52 58 54 51 46 40 41 38 40 43 43 44 44 43 45 46 44 43 42 41 39 37 36
1 11 20 7 4 7 8 13 17 18 17 5 17 24 15 12 23 36 42 39 44 48 50 51 46 39 38 36 34 35 41 45 46 45 43 45 46 45 43 42 42 41 40 38
18 10 13 9 8 5 11 11 18 17 6 6 10 21 14 11 17 34 44 41 44 47 50 52 46 39 35 35 33 32 35 40 44 44 44 45 45 44 44 45 44 45 42 40
9 8 12 6 7 14 22 12 14 10 2 10 2 19 4 10 18 16 30 36 39 43 38 42 44 38 31 27 27 31 34 38 40 43 45 46 46 47 47 44 45 45 44 41
9 2 4 7 16 9 12 6 6 3 4 5 4 4 2 5 9 12 11 25 27 30 34 35 37 33 23 21 23 27 31 34 37 40 42 43 45 45 41 43 44 45 44 42
10 2 6 8 4 10 3 3 3 4 3 7 10 7 24 5 7 4 6 23 27 28 34 41 35 34 24 23 23 25 30 31 33 37 41 43 43 43 43 45 45 45 44 44
3 5 3 7 5 2 4 4 4 3 2 10 7 6 26 8 8 8 13 20 22 30 32 40 39 36 25 27 25 26 27 29 31 35 38 40 40 40 42 42 41 41 44 45
4 16 9 6 9 8 7 9 6 7 8 16 7 9 18 8 11 14 12 10 20 34 42 34 21 23 22 22 26 25 27 27 29 32 36 38 39 41 43 43 42 39 39 42
5 10 2 5 4 9 5 6 8 3 0 3 12 17 15 8 6 3 7 12 19 30 39 30 18 17 19 19 21 22 24 23 31 31 34 38 42 43 42 42 42 41 39 39
2 8 3 2 1 4 6 2 1 1 4 11 8 16 16 16 17 6 8 12 24 26 32 26 18 12 10 10 10 16 21 22 28 32 35 39 41 41 41 43 43 41 40 41
4 3 9 1 6 16 1 4 5 1 5 16 19 13 24 28 7 7 12 29 31 22 28 34 13 10 9 9 12 13 18 22 27 32 37 42 43 44 45 46 45 43 42 42
7 5 7 19 6 5 5 8 5 5 10 9 15 16 13 24 10 9 22 36 37 35 35 34 26 14 12 19 27 32 28 31 34 38 40 44 46 50 50 49 48 48 46 45
2 3 10 6 8 3 6 11 13 17 15 21 19 19 11 19 20 26 20 26 31 31 23 25 27 29 32 31 35 36 41 43 40 44 49 49 50 52 52 53 53 53 51 49
10 8 16 13 11 16 17 19 20 13 12 20 19 22 17 22 24 27 23 28 30 27 28 29 27 27 29 30 31 33 37 47 53 49 50 50 48 49 54 55 55 55 56 55
2 14 15 20 16 16 20 24 29 30 26 22 22 24 22 23 15 21 25 30 31 33 33 35 34 33 34 34 33 33 36 40 44 46 48 51 48 50 54 54 53 54 53 55
1 8 13 22 22 17 18 13 15 13 15 21 24 29 20 24 31 32 24 29 32 30 29 29 35 39 40 40 40 40 40 41 45 48 49 49 53 56 54 55 52 52 53 54
6 6 5 20 17 14 15 18 17 21 13 8 8 7 13 18 19 25 20 30 27 26 27 30 32 35 40 43 44 46 46 44 40 42 46 41 43 54 55 52 52 51 53 50
14 13 8 16 17 22 11 2 5 5 8 11 9 8 12 16 24 25 15 31 30 28 25 31 26 38 41 40 43 45 45 44 45 35 33 36 40 44 49 47 50 50 49 46
15 13 6 3 6 12 15 7 6 5 4 9 4 4 9 16 23 11 24 27 28 24 28 30 35 36 42 42 41 43 47 43 43 44 36 34 31 34 42 44 44 44 45 45
4 4 3 3 4 5 2 7 9 7 6 4 4 3 7 15 12 14 29 27 26 32 33 36 35 37 42 40 41 41 40 44 38 39 45 41 33 30 32 34 37 40 43 43
3 3 3 4 4 7 3 8 5 4 7 19 3 4 7 5 10 32 35 32 31 35 38 37 39 41 41 43 42 44 42 42 44 38 37 42 41 33 28 27 30 35 39 40
4 3 3 2 1 9 6 10 1 6 20 19 8 16 16 21 26 28 30 32 36 36 37 39 40 44 45 46 44 44 44 43 43 42 41 34 38 38 31 26 25 30 35 38
3 7 5 8 6 9 31 27 32 20 20 18 16 21 19 22 27 27 32 35 37 38 39 42 45 51 51 51 49 52 48 45 41 41 40 36 30 33 35 31 27 29 34 37
7 18 4 2 12 17 22 26 32 33 24 21 23 24 20 21 25 29 32 38 40 41 44 44 47 51 56 55 57 54 53 49 44 45 46 39 34 33 33 34 32 29 32 34
9 4 7 10 16 22 31 28 28 23 22 26 27 26 28 23 31 29 34 39 41 43 46 47 52 56 60 59 59 59 56 52 51 47 45 45 38 33 34 39 38 38 37 35
12 17 11 14 27 20 20 31 25 20 22 25 25 30 31 29 34 37 43 44 42 45 49 48 51 56 64 62 61 60 56 53 50 46 44 41 41 37 35 34 39 40 41 40
Wind_Direction
196 145 200 223 206 235 174 219 237 252 254 263 258 263 261 271 277 276 271 272 273 277 288 289 286 283 277 265 258 256 249 244 239 235 232 229 230 229 228 228 230 230 230 230
78 219 222 230 196 207 232 255 265 271 265 240 268 268 273 261 258 260 271 271 271 276 286 289 290 286 279 272 267 258 249 244 241 236 233 232 231 229 231 229 227 228 229 230
227 229 219 209 223 231 229 235 254 260 302 244 283 275 244 256 258 258 264 267 274 278 285 289 288 287 284 276 269 259 250 244 239 235 229 229 229 230 229 227 226 227 228 229
244 244 216 187 213 207 264 221 257 259 334 272 5 298 168 250 264 261 264 270 276 283 287 292 292 293 290 286 271 253 249 246 238 233 228 229 232 230 231 232 230 228 227 228
250 190 182 201 232 166 252 207 211 205 202 329 196 273 183 153 263 265 272 272 277 282 285 287 294 302 296 274 256 249 248 245 238 232 230 231 230 233 237 235 232 229 229 229
253 298 174 217 221 190 128 91 78 68 115 272 190 187 290 163 218 255 273 286 285 297 302 298 295 302 293 263 238 239 240 240 237 230 228 231 232 232 232 232 231 230 230 230
298 222 229 174 234 143 142 81 311 316 112 236 150 176 255 280 239 232 277 304 327 342 331 319 294 288 288 259 237 237 239 237 233 229 231 232 233 236 237 236 235 232 231 231
247 287 186 170 191 187 191 169 177 215 261 275 105 247 269 242 270 276 285 309 343 349 342 335 319 297 276 254 247 242 240 237 231 230 233 235 234 235 235 236 236 236 236 237
215 271 258 201 163 154 173 184 226 259 149 292 268 271 290 253 272 333 329 326 338 354 346 332 329 307 282 259 250 251 253 251 240 233 236 239 237 236 236 236 237 238 239 240
308 293 210 35 303 260 190 150 98 282 215 244 225 258 268 278 283 272 312 302 323 343 335 343 354 345 316 302 280 268 261 258 260 253 248 244 243 241 240 239 238 237 239 240
181 179 262 60 211 248 224 251 230 266 195 257 259 245 263 277 240 267 318 314 307 306 320 331 350 6 343 335 318 310 308 287 268 262 258 252 247 241 239 239 240 240 241 242
204 209 242 265 238 234 191 242 233 240 247 240 259 255 256 267 270 288 290 293 297 295 306 308 298 306 311 316 307 300 287 280 279 269 263 261 250 245 242 241 241 241 242 243
129 264 275 278 292 324 215 241 238 245 262 258 262 265 272 295 292 284 284 286 288 299 320 326 317 312 321 317 312 310 308 299 282 283 268 261 255 251 249 245 244 244 243 243
333 255 257 272 282 297 286 284 282 250 257 259 257 271 277 279 283 293 334 8 32 33 17 7 355 348 345 338 329 316 302 305 301 289 270 266 261 260 258 251 248 247 246 245
229 261 274 281 293 290 283 286 284 272 262 251 261 276 278 278 351 3 19 34 20 11 5 1 355 353 352 345 334 318 308 302 302 303 284 265 257 260 259 254 253 251 249 248
282 281 284 273 284 279 287 279 269 279 291 281 287 286 32 19 11 4 21 17 11 0 351 347 345 353 352 348 348 343 336 321 308 298 290 290 271 261 261 256 252 251 249 244
258 262 255 272 278 296 283 264 278 277 350 326 312 38 8 6 2 346 7 0 357 346 344 341 342 339 337 338 341 338 338 342 332 298 288 291 285 272 263 256 254 249 246 244
254 259 262 274 293 274 275 234 97 105 101 74 68 43 10 347 333 327 321 347 345 337 337 339 330 326 326 326 327 325 331 336 341 344 313 302 290 282 268 261 253 247 244 244
221 245 266 225 219 279 290 356 19 13 76 56 25 339 333 333 325 324 347 339 326 328 328 324 327 325 319 328 326 319 319 328 334 342 348 331 312 292 274 261 253 248 243 239
151 209 224 326 259 248 100 330 273 242 237 246 208 320 331 336 337 318 333 327 320 320 327 329 330 326 320 326 324 321 315 315 326 335 330 337 333 316 290 271 259 250 243 237
19 2 184 256 255 285 236 292 324 76 279 322 193 256 301 297 298 300 314 319 314 320 323 324 324 323 323 323 321 317 316 313 315 315 318 321 325 326 307 288 266 252 243 238
152 148 231 52 160 271 9 353 62 237 301 287 277 296 296 297 300 302 305 304 313 319 323 326 323 320 323 319 317 317 312 311 310 313 307 302 308 314 316 294 273 258 245 237
267 206 215 192 215 305 310 297 293 298 287 259 277 292 289 288 295 297 300 304 308 311 315 318 319 319 319 318 317 311 310 312 310 307 306 297 285 287 296 295 285 265 248 240
243 239 216 40 261 267 271 281 286 290 277 270 291 292 287 289 291 290 297 302 305 306 309 311 310 310 311 314 312 309 308 308 305 297 292 294 290 279 271 273 271 263 255 250
230 134 228 258 268 271 274 273 281 286 277 286 292 290 292 293 297 296 296 297 298 301 303 303 303 304 306 308 307 305 304 301 300 299 293 289 283 282 276 266 257 257 256 252
228 241 248 255 265 266 275 281 291 286 287 286 289 295 299 299 300 303 300 301 298 297 298 296 297 300 303 302 301 299 299 300 298 295 289 281 283 276 274 268 262 258 254 251
Height
1513 1517 1520 1505 1508 1501 1511 1516 1513 1501 1490 1493 1488 1480 1476 1469 1465 1457 1451 1446 1439 1436 1428 1429 1429 1432 1435 1438 1440 1442 1444 1446 1449 1453 1457 1462 1464 1471 1476 1481 1486 1491 1494 1497
1514 1510 1494 1497 1503 1509 1511 1511 1506 1489 1486 1491 1481 1469 1467 1465 1455 1448 1438 1436 1429 1425 1421 1418 1420 1421 1423 1426 1430 1431 1433 1436 1440 1444 1450 1453 1457 1462 1468 1473 1478 1483 1487 1491
1496 1493 1493 1498 1501 1506 1502 1507 1494 1493 1489 1484 1478 1451 1458 1447 1442 1436 1429 1422 1423 1420 1415 1410 1412 1414 1416 1417 1419 1421 1423 1426 1430 1436 1442 1447 1452 1456 1460 1464 1469 1473 1479 1484
1498 1485 1488 1496 1498 1497 1491 1492 1492 1493 1497 1494 1479 1442 1442 1441 1433 1427 1421 1415 1414 1413 1410 1406 1405 1407 1409 1409 1411 1413 1415 1418 1423 1427 1432 1436 1440 1444 1448 1456 1461 1466 1472 1477
1488 1483 1490 1494 1484 1490 1483 1484 1488 1492 1497 1494 1488 1497 1432 1428 1433 1424 1414 1412 1408 1407 1405 1404 1403 1403 1402 1400 1403 1406 1409 1412 1416 1420 1425 1427 1431 1437 1444 1448 1453 1458 1464 1469
1484 1481 1481 1482 1481 1481 1481 1484 1490 1499 1499 1499 1480 1485 1394 1434 1425 1418 1412 1410 1408 1406 1404 1401 1398 1398 1399 1396 1394 1399 1402 1405 1409 1414 1418 1421 1425 1429 1435 1438 1442 1448 1455 1460
1480 1480 1470 1473 1481 1480 1482 1491 1510 1508 1516 1486 1464 1480 1407 1416 1415 1412 1407 1409 1409 1406 1400 1394 1389 1389 1392 1393 1392 1392 1396 1399 1404 1409 1412 1415 1420 1424 1428 1432 1436 1442 1446 1449
1492 1473 1470 1465 1468 1473 1484 1485 1500 1507 1489 1458 1480 1465 1409 1413 1408 1406 1406 1406 1405 1404 1396 1388 1385 1385 1385 1387 1391 1391 1392 1396 1399 1404 1408 1411 1413 1415 1419 1423 1427 1432 1437 1443
1491 1478 1462 1461 1458 1458 1471 1479 1463 1477 1490 1484 1444 1431 1414 1406 1406 1402 1403 1401 1401 1398 1396 1390 1384 1383 1384 1386 1388 1392 1396 1398 1400 1399 1404 1408 1410 1410 1412 1416 1420 1425 1430 1434
1474 1481 1462 1463 1463 1457 1459 1457 1470 1483 1482 1468 1449 1433 1418 1404 1397 1402 1400 1398 1394 1396 1399 1395 1386 1384 1386 1388 1390 1393 1394 1396 1400 1401 1400 1399 1403 1407 1408 1411 1412 1415 1420 1424
1470 1474 1463 1461 1464 1458 1464 1464 1458 1451 1459 1443 1437 1427 1404 1395 1401 1400 1396 1395 1393 1395 1398 1399 1390 1388 1391 1391 1393 1392 1392 1394 1393 1395 1395 1395 1396 1397 1399 1401 1406 1409 1412 1417
1468 1469 1469 1455 1450 1450 1451 1450 1451 1455 1437 1434 1423 1413 1401 1389 1394 1397 1394 1395 1394 1396 1393 1393 1394 1392 1393 1393 1394 1391 1389 1389 1389 1388 1386 1387 1388 1389 1390 1392 1396 1399 1402 1408
1462 1463 1458 1457 1451 1447 1452 1442 1439 1434 1437 1434 1427 1409 1401 1396 1392 1391 1395 1396 1395 1394 1393 1392 1393 1394 1391 1387 1385 1382 1381 1381 1383 1381 1378 1376 1379 1382 1382 1383 1385 1388 1392 1397
1464 1456 1456 1446 1448 1442 1442 1439 1432 1433 1430 1415 1410 1403 1407 1401 1396 1391 1399 1399 1398 1396 1396 1392 1392 1390 1386 1380 1377 1372 1372 1372 1371 1371 1368 1367 1367 1371 1373 1374 1372 1376 1381 1384
1460 1448 1452 1446 1444 1443 1443 1440 1433 1423 1413 1411 1400 1402 1402 1403 1413 1414 1406 1403 1402 1396 1395 1400 1397 1389 1377 1374 1372 1369 1367 1365 1362 1360 1360 1357 1358 1358 1359 1360 1360 1364 1367 1374
1462 1452 1450 1443 1438 1440 1437 1435 1430 1426 1421 1415 1405 1399 1431 1424 1419 1417 1416 1409 1405 1406 1406 1403 1397 1384 1382 1380 1373 1370 1366 1358 1354 1349 1350 1350 1347 1347 1346 1348 1346 1348 1354 1360
1461 1454 1452 1438 1437 1438 1434 1421 1416 1407 1415 1410 1410 1435 1434 1429 1423 1424 1417 1415 1411 1410 1404 1398 1392 1388 1385 1379 1373 1369 1362 1355 1347 1343 1340 1336 1336 1336 1335 1333 1336 1336 1343 1348
1450 1452 1451 1439 1438 1441 1409 1408 1413 1419 1428 1430 1432 1433 1432 1429 1424 1418 1414 1411 1408 1406 1403 1397 1394 1387 1381 1378 1371 1365 1359 1353 1346 1334 1331 1328 1327 1326 1326 1322 1322 1326 1331 1335
1441 1444 1447 1460 1454 1419 1411 1420 1426 1426 1428 1429 1432 1430 1426 1422 1417 1413 1411 1410 1409 1403 1398 1394 1389 1385 1382 1374 1366 1358 1353 1348 1342 1335 1328 1325 1318 1318 1318 1315 1317 1318 1322 1324
1435 1438 1443 1462 1447 1436 1425 1426 1423 1421 1417 1423 1423 1423 1421 1417 1412 1398 1403 1406 1403 1397 1391 1387 1379 1379 1376 1367 1363 1355 1349 1343 1335 1330 1326 1321 1317 1313 1311 1309 1309 1313 1317 1318
1462 1466 1466 1477 1467 1441 1427 1423 1417 1438 1425 1415 1418 1417 1415 1414 1413 1403 1398 1395 1394 1388 1384 1379 1372 1369 1368 1362 1358 1350 1340 1335 1329 1324 1321 1318 1316 1312 1309 1305 1306 1309 1314 1314
1446 1469 1474 1477 1475 1448 1419 1418 1425 1421 1415 1414 1412 1411 1409 1406 1403 1399 1394 1392 1387 1381 1378 1373 1366 1365 1356 1358 1355 1342 1336 1330 1321 1317 1316 1313 1311 1307 1305 1305 1303 1305 1309 1307
1449 1438 1447 1442 1433 1414 1413 1414 1410 1411 1408 1405 1405 1405 1403 1400 1396 1394 1390 1385 1380 1375 1370 1366 1359 1350 1352 1348 1343 1333 1329 1321 1311 1309 1308 1307 1301 1301 1300 1298 1299 1301 1304 1304
1427 1424 1427 1428 1414 1411 1408 1408 1407 1404 1402 1401 1399 1397 1396 1393 1390 1386 1382 1376 1371 1366 1361 1357 1353 1348 1341 1339 1330 1324 1315 1310 1304 1302 1300 1297 1293 1289 1289 1289 1289 1290 1294 1296
1417 1419 1419 1413 1407 1405 1401 1401 1398 1398 1397 1394 1392 1391 1388 1386 1380 1379 1373 1367 1362 1356 1351 1347 1341 1334 1326 1322 1314 1308 1304 1300 1295 1291 1285 1282 1282 1278 1277 1278 1277 1280 1282 1283
1409 1407 1409 1402 1395 1399 1396 1393 1391 1391 1389 1387 1385 1381 1380 1377 1372 1369 1361 1357 1352 1345 1339 1332 1325 1318 1309 1305 1299 1295 1291 1287 1283 1278 1274 1275 1266 1267 1267 1265 1268 1268 1273 1275